Flag Weather past 2 weeks in Willich, North Rhine-Westphalia, Germany

Now
39 °F

Clear.


Feels Like: 35 °F
Forecast: 38 / 44 °F
Wind: 6 mph from East

Location: Monchengladbach Airport

Current Time: Nov 25, 2014 at 9:49:57 PM

Latest Report: Nov 25, 2014 at 8:20 PM


Visibility: 10 mi

Pressure: 30.15 "Hg

Humidity: 93%

Dew point: 37 °F

Location of WillichLocation

Historic Weather in Willich — Graph

°F

Willich temperature yesterday

Maximum temperature yesterday: 52 °F (at 1:50 PM)
Minimum temperature yesterday: 36 °F (at 7:20 PM)
Average temperature yesterday: 45 °F

Past Weeks' High & Low Weather Summary

 TemperatureHumidityPressure
High55 °F (Nov 13, 1:20 PM)100% (Nov 12, 6:20 PM)30.33 "Hg (Nov 12, 6:20 PM)
Low27 °F (Nov 25, 8:20 AM)62% (Nov 21, 2:20 PM)29.50 "Hg (Nov 16, 4:50 PM)
Average48 °F87%29.92 "Hg
* Reported Nov 10 8:20 PM — Nov 25 8:20 PM, Willich, Weather by CustomWeather, © 2014

Note: Actual official high and low records may vary slightly from our data, if they occured in-between our weather recording intervals... More about our weather records

Advertising

Willich weather history for previous 24 hours

 ConditionsComfort  
Time TempWeatherWind HumidityBarometerVisibility
8:20 PM
Nov 25
39 °FClear.6 mph93%30.15 "Hg10 mi
7:50 PM41 °FClear.6 mph93%30.15 "Hg10 mi
7:20 PM39 °FClear.3 mph93%30.15 "Hg10 mi
6:50 PM43 °FClear.5 mph87%30.18 "Hg10 mi
6:20 PM43 °FPassing clouds.5 mph81%30.18 "HgN/A
5:50 PM45 °FClear.6 mph76%30.18 "Hg10 mi
5:20 PM46 °FClear.7 mph76%30.18 "Hg10 mi
4:50 PM46 °FPassing clouds.5 mph71%30.18 "HgN/A
4:20 PM46 °FClear.5 mph76%30.18 "Hg10 mi
3:50 PM48 °FClear.3 mph71%30.18 "Hg10 mi
3:20 PM48 °FClear.6 mph71%30.18 "Hg10 mi
2:50 PM48 °FClear.6 mph71%30.21 "Hg10 mi
2:20 PM50 °FClear.5 mph67%30.21 "Hg10 mi
1:50 PM48 °FClear.5 mph71%30.24 "Hg10 mi
1:20 PM48 °FPassing clouds.6 mph71%30.24 "HgN/A
12:50 PM46 °FClear.5 mph76%30.24 "Hg10 mi
12:20 PM45 °FPassing clouds.6 mph76%30.27 "HgN/A
11:50 AM45 °FClear.5 mph81%30.27 "Hg10 mi
11:20 AM43 °FClear.1 mph87%30.27 "Hg10 mi
10:50 AM41 °FClear.No wind100%30.30 "Hg4 mi
10:20 AM37 °FClear.1 mph100%30.30 "Hg4 mi
9:50 AM32 °FClear.2 mph100%30.30 "Hg10 mi
9:20 AM30 °FClear.1 mph100%30.30 "Hg5 mi
8:50 AM28 °FIce fog.No wind100%30.30 "Hg2 mi
8:20 AM27 °FIce fog.1 mph100%30.30 "Hg0 mi
7:50 AM28 °FIce fog.1 mph100%30.30 "Hg0 mi
Weather by CustomWeather, © 2014

See weather overviewHow to use our weather pages